User: anonymous   Login
Location: Unspecified
(0.0000°N, 0.0000°E)
Time: 12:25:08
(UTC+00:00)
Language:

AAUSAT CUBESAT 2 - Orbit

View from above orbital plane
View from above orbital plane
View from above satellite
View from above satellite

Ground track
Ground track

The orbit data is extracted from the following two-line orbital elements,

1 32788U 08021F   19081.95089734 +.00000407 +00000-0 +42480-4 0  9996
2 32788 097.5033 101.5410 0013106 129.4513 230.7870 14.94635586591716
Epoch (UTC): 22 March 2019 22:49:17
Eccentricity: 0.0013106
inclination: 97.5033°
perigee height: 574 km
apogee height: 592 km
right ascension of ascending node: 101.5410°
argument of perigee: 129.4513°
revolutions per day: 14.94635586
mean anomaly at epoch: 230.7870°
orbit number at epoch: 59171

The dashed part of the orbit path shows where the satellite is in the earth's shadow,  

DLR